Find Starlink 31737

NORAD ID: 59537 Int'l Des: 2024-074 Owner: SPXS Country: US Constellation: starlink operational
LEOCIRCULAR

Live-Position

3D-Globus wird geladen...

Über Starlink 31737

Beschreibung wird geladen...

Nächste Überflüge

Passes for default location (London). Set your location on the main map for personalized predictions.

Höhenverlauf

Loading altitude history...

Zweizeiliger Elementsatz

1 59537U 24074D 26139.16619610 .00006584 00000-0 24854-3 0 9996
2 59537 43.0017 305.4382 0000845 253.3851 106.6908 15.27582235116799
Epoch: 19. Mai 2026 • Age: 8 hours

Aktueller Status

Höhe 486.7 km
Geschwindigkeit 7.63 km/s
Subsatellitenpunkt 43.13°N, 29.69°W
Startdatum 18. Apr. 2024
Alter 2 years
Typ internet

Technische Details

Klassifizierung Payload
Masse 730.00 kg
Trockenmasse 700.00 kg
Gesamtmasse 730.00 kg
Länge 0.30 m
Durchmesser 4.10 m
Spannweite 29.00 m
Form Box + pan
Hersteller SPXS
Bus-Typ Starlink V2M
Phasenstatus In Orbit
Besitzer/Staat SPXS/US

Most Searched